When you browse on this site, cookies collect data to enhance your experience and personalize the content and advertising you see.
Visit our Privacy Policy to learn more. By continuing to use the site, you agree to this use of cookies and data.
  • In Österreich
  • Länderverzeichnis
  • Für 7 Tage
  • Wassertemperatur
  • Satellitenkarten
  • Wetterkarte
  • News
  • Widgets
  • user-avatar
    Anmelden

    Stündliche Wetter Santiago del Estero

    Heute, 24 März, Sonntag

    Zeit Temperatur Niederschläge Wind Luftdruck Luftfeuchtigkeit
    00:00 +24°C° 0 mm 2 m/S 742 mmHg 64%
    01:00 +24°C° 0 mm 2 m/S 742 mmHg 67%
    02:00 +23°C° 0 mm 2 m/S 742 mmHg 69%
    03:00 +21°C° 0 mm 2 m/S 743 mmHg 71%
    04:00 +21°C° 0 mm 2 m/S 743 mmHg 72%
    05:00 +20°C° 0 mm 2 m/S 743 mmHg 73%
    06:00 +23°C° 0 mm 1 m/S 744 mmHg 69%
    07:00 +24°C° 0 mm 1 m/S 744 mmHg 65%
    08:00 +25°C° 0 mm 1 m/S 745 mmHg 60%
    09:00 +27°C° 0 mm 1 m/S 745 mmHg 54%
    10:00 +30°C° 0 mm 1 m/S 745 mmHg 47%
    11:00 +32°C° 0 mm 2 m/S 746 mmHg 41%
    12:00 +34°C° 0 mm 2 m/S 745 mmHg 39%
    13:00 +35°C° 0 mm 2 m/S 745 mmHg 36%
    14:00 +36°C° 0 mm 3 m/S 744 mmHg 34%
    15:00 +35°C° 0 mm 3 m/S 744 mmHg 37%
    16:00 +34°C° 0 mm 3 m/S 743 mmHg 39%
    17:00 +33°C° 0 mm 3 m/S 743 mmHg 42%
    18:00 +31°C° 0 mm 2 m/S 743 mmHg 44%
    19:00 +30°C° 0 mm 2 m/S 743 mmHg 45%
    20:00 +29°C° 0 mm 2 m/S 744 mmHg 47%
    21:00 +29°C° 0 mm 3 m/S 744 mmHg 46%
    22:00 +29°C° 0 mm 3 m/S 744 mmHg 46%
    23:00 +28°C° 0 mm 3 m/S 745 mmHg 45%

    Morgen, 25 März, Montag

    Zeit Temperatur Niederschläge Wind Luftdruck Luftfeuchtigkeit
    00:00 +28°C° 0 mm 4 m/S 744 mmHg 48%
    01:00 +27°C° 0 mm 4 m/S 744 mmHg 51%
    02:00 +26°C° 0 mm 4 m/S 744 mmHg 53%
    03:00 +25°C° 0 mm 4 m/S 744 mmHg 53%
    04:00 +23°C° 0 mm 4 m/S 744 mmHg 53%
    05:00 +23°C° 0 mm 4 m/S 744 mmHg 53%
    06:00 +22°C° 0 mm 4 m/S 744 mmHg 50%
    07:00 +22°C° 0 mm 3 m/S 745 mmHg 47%
    08:00 +22°C° 0 mm 3 m/S 745 mmHg 43%
    09:00 +24°C° 0 mm 3 m/S 745 mmHg 42%
    10:00 +25°C° 0 mm 3 m/S 746 mmHg 41%
    11:00 +27°C° 0 mm 3 m/S 746 mmHg 40%
    12:00 +27°C° 0 mm 3 m/S 745 mmHg 42%
    13:00 +27°C° 0 mm 3 m/S 744 mmHg 43%
    14:00 +27°C° 0 mm 2 m/S 744 mmHg 45%
    15:00 +27°C° 0 mm 2 m/S 743 mmHg 46%
    16:00 +27°C° 0 mm 3 m/S 743 mmHg 46%
    17:00 +26°C° 0 mm 3 m/S 743 mmHg 47%
    18:00 +26°C° 0 mm 3 m/S 744 mmHg 48%
    19:00 +26°C° 0 mm 3 m/S 744 mmHg 48%
    20:00 +26°C° 0 mm 4 m/S 745 mmHg 48%
    21:00 +25°C° 0.1 mm 4 m/S 746 mmHg 48%
    22:00 +23°C° 0.1 mm 5 m/S 746 mmHg 48%
    23:00 +22°C° 0.1 mm 5 m/S 747 mmHg 48%

    übermorgen, 26 März, Dienstag

    Zeit Temperatur Niederschläge Wind Luftdruck Luftfeuchtigkeit
    00:00 +21°C° 0.1 mm 5 m/S 747 mmHg 53%
    01:00 +20°C° 0.1 mm 5 m/S 747 mmHg 58%
    02:00 +19°C° 0.1 mm 4 m/S 747 mmHg 64%
    03:00 +18°C° 0.3 mm 4 m/S 747 mmHg 68%
    04:00 +17°C° 0.3 mm 4 m/S 747 mmHg 72%
    05:00 +17°C° 0.3 mm 4 m/S 747 mmHg 76%
    06:00 +17°C° 0.1 mm 4 m/S 748 mmHg 76%
    07:00 +17°C° 0.1 mm 4 m/S 749 mmHg 76%
    08:00 +17°C° 0.1 mm 4 m/S 749 mmHg 76%
    09:00 +17°C° 0.2 mm 3 m/S 750 mmHg 77%
    10:00 +17°C° 0.2 mm 3 m/S 750 mmHg 78%
    11:00 +17°C° 0.2 mm 3 m/S 750 mmHg 79%
    12:00 +17°C° 0.1 mm 3 m/S 750 mmHg 77%
    13:00 +17°C° 0.1 mm 3 m/S 749 mmHg 74%
    14:00 +18°C° 0.1 mm 3 m/S 749 mmHg 72%
    15:00 +18°C° 0 mm 3 m/S 749 mmHg 70%
    16:00 +18°C° 0 mm 3 m/S 749 mmHg 68%
    17:00 +19°C° 0 mm 3 m/S 748 mmHg 66%
    18:00 +18°C° 0 mm 3 m/S 749 mmHg 69%
    19:00 +17°C° 0 mm 3 m/S 749 mmHg 72%
    20:00 +17°C° 0 mm 2 m/S 749 mmHg 74%
    21:00 +17°C° 0 mm 2 m/S 750 mmHg 75%
    22:00 +16°C° 0 mm 2 m/S 750 mmHg 76%
    23:00 +16°C° 0 mm 1 m/S 751 mmHg 76%

    27 März, Mittwoch

    Zeit Temperatur Niederschläge Wind Luftdruck Luftfeuchtigkeit
    00:00 +16°C° 0 mm 1 m/S 750 mmHg 77%
    01:00 +16°C° 0 mm 1 m/S 750 mmHg 77%
    02:00 +16°C° 0 mm 1 m/S 750 mmHg 77%
    03:00 +16°C° 0 mm 1 m/S 750 mmHg 77%
    04:00 +18°C° 0 mm 1 m/S 749 mmHg 76%
    05:00 +18°C° 0 mm 1 m/S 749 mmHg 76%
    06:00 +18°C° 0 mm 1 m/S 750 mmHg 75%
    07:00 +18°C° 0 mm 1 m/S 750 mmHg 74%
    08:00 +18°C° 0 mm 1 m/S 750 mmHg 73%
    09:00 +20°C° 0 mm 1 m/S 750 mmHg 68%
    10:00 +20°C° 0 mm 2 m/S 750 mmHg 62%
    11:00 +21°C° 0 mm 2 m/S 750 mmHg 57%
    12:00 +22°C° 0 mm 3 m/S 750 mmHg 52%
    13:00 +25°C° 0 mm 3 m/S 749 mmHg 48%
    14:00 +27°C° 0 mm 4 m/S 748 mmHg 43%
    15:00 +27°C° 0 mm 3 m/S 748 mmHg 43%
    16:00 +27°C° 0 mm 3 m/S 747 mmHg 42%
    17:00 +27°C° 0 mm 3 m/S 747 mmHg 42%
    18:00 +26°C° 0 mm 3 m/S 747 mmHg 45%
    19:00 +24°C° 0 mm 2 m/S 748 mmHg 49%
    20:00 +21°C° 0 mm 2 m/S 748 mmHg 52%
    21:00 +21°C° 0 mm 1 m/S 748 mmHg 56%
    22:00 +20°C° 0 mm 1 m/S 748 mmHg 59%
    23:00 +19°C° 0 mm 1 m/S 749 mmHg 63%

    28 März, Donnerstag

    Zeit Temperatur Niederschläge Wind Luftdruck Luftfeuchtigkeit
    00:00 +19°C° 0 mm 1 m/S 748 mmHg 64%
    01:00 +18°C° 0 mm 1 m/S 748 mmHg 65%
    02:00 +18°C° 0 mm 1 m/S 748 mmHg 66%
    03:00 +18°C° 0 mm 1 m/S 747 mmHg 67%
    04:00 +16°C° 0 mm 1 m/S 747 mmHg 68%
    05:00 +16°C° 0 mm 1 m/S 747 mmHg 68%
    06:00 +19°C° 0 mm 1 m/S 747 mmHg 64%
    07:00 +20°C° 0 mm 1 m/S 748 mmHg 59%
    08:00 +21°C° 0 mm 1 m/S 748 mmHg 55%
    09:00 +24°C° 0 mm 1 m/S 748 mmHg 50%
    10:00 +26°C° 0 mm 2 m/S 748 mmHg 46%
    11:00 +28°C° 0 mm 3 m/S 748 mmHg 42%
    12:00 +30°C° 0 mm 3 m/S 747 mmHg 39%
    13:00 +31°C° 0 mm 3 m/S 746 mmHg 36%
    14:00 +33°C° 0 mm 3 m/S 746 mmHg 34%
    15:00 +33°C° 0 mm 3 m/S 746 mmHg 34%
    16:00 +33°C° 0 mm 3 m/S 745 mmHg 34%
    17:00 +32°C° 0 mm 2 m/S 745 mmHg 34%
    18:00 +30°C° 0 mm 2 m/S 745 mmHg 40%
    19:00 +27°C° 0 mm 1 m/S 746 mmHg 46%
    20:00 +25°C° 0 mm 1 m/S 746 mmHg 51%
    21:00 +24°C° 0 mm 1 m/S 746 mmHg 54%
    22:00 +23°C° 0 mm 1 m/S 746 mmHg 57%
    23:00 +22°C° 0 mm 1 m/S 746 mmHg 60%

    29 März, Freitag

    Zeit Temperatur Niederschläge Wind Luftdruck Luftfeuchtigkeit
    00:00 +21°C° 0 mm 2 m/S 746 mmHg 60%
    01:00 +21°C° 0 mm 2 m/S 746 mmHg 60%
    02:00 +20°C° 0 mm 2 m/S 745 mmHg 59%
    03:00 +20°C° 0 mm 2 m/S 745 mmHg 62%
    04:00 +20°C° 0 mm 2 m/S 745 mmHg 64%
    05:00 +19°C° 0 mm 2 m/S 745 mmHg 67%
    06:00 +20°C° 0 mm 2 m/S 745 mmHg 64%
    07:00 +22°C° 0 mm 1 m/S 745 mmHg 62%
    08:00 +23°C° 0 mm 1 m/S 746 mmHg 60%
    09:00 +26°C° 0 mm 1 m/S 745 mmHg 55%
    10:00 +28°C° 0 mm 2 m/S 745 mmHg 49%
    11:00 +30°C° 0 mm 2 m/S 745 mmHg 43%
    12:00 +33°C° 0 mm 3 m/S 744 mmHg 39%
    13:00 +34°C° 0 mm 4 m/S 743 mmHg 35%
    14:00 +36°C° 0 mm 5 m/S 742 mmHg 32%
    15:00 +36°C° 0 mm 5 m/S 741 mmHg 33%
    16:00 +35°C° 0 mm 4 m/S 741 mmHg 34%
    17:00 +35°C° 0 mm 4 m/S 740 mmHg 35%
    18:00 +33°C° 0 mm 4 m/S 741 mmHg 39%
    19:00 +30°C° 0 mm 3 m/S 741 mmHg 44%
    20:00 +28°C° 0 mm 3 m/S 741 mmHg 48%
    21:00 +28°C° 0 mm 3 m/S 741 mmHg 51%
    22:00 +27°C° 0 mm 3 m/S 741 mmHg 54%
    23:00 +26°C° 0 mm 3 m/S 741 mmHg 56%
    Mehr zeigen